パンスターズ彗星

P/2021 A5 ( PanSTARRS )

English version
Home page
Updated on February 20, 2021

---------------------------------------------------------------------

・ プロフィール

発見日 2021年1月6日
発見光度 21.2等
発見者 Pan-STARRS 1 telescope (Haleakala)

・ 写真集

・ 軌道要素

Epoch 2020 Nov. 7.0 TT = JDT 2459160.5
T 2020 Nov. 11.25451 TT                                 Rudenko
q   2.6205942            (2000.0)            P               Q
n   0.18545643     Peri.   61.03946     +0.84502558     -0.50964636
a   3.0453797      Node   328.76904     +0.31315113     +0.71699188
e   0.1394852      Incl.   18.18817     +0.43343759     +0.47558726
P   5.31
From 43 observations 2020 Dec. 16-2021 Jan. 15, mean residual 0".5.

・ 光度変化

        m1 = 15.0 + 5 logΔ + 10.0 log r

---------------------------------------------------------------------

軌道要素はM.P.E.C. 2021-B143に掲載されたものです。
光度グラフはComet for Windowsで作成したものです。

---------------------------------------------------------------------

Copyright(C) Seiichi Yoshida (comet@aerith.net). All rights reserved.